| time (UTC) | temp C | wind direction | speed KPH | gust KPH | rain 1hr cm | rain 24hr cm | rain mn cm | humidity % | barometer mb |
| 20260904141600 | 20 | 273 | 9.7 | 19.3 | 0.00 | 0.28 | 0.28 | 82 | 1011.7 |
| 20260904141101 | 20 | 281 | 11.3 | 22.5 | 0.00 | 0.28 | 0.28 | 83 | 1011.7 |
| 20260904140059 | 20 | 293 | 16.1 | 27.4 | 0.00 | 0.28 | 0.28 | 82 | 1011.6 |
| 20260904135600 | 20 | 272 | 14.5 | 29.0 | 0.00 | 0.28 | 0.28 | 82 | 1011.6 |
| 20260904135101 | 20 | 293 | 19.3 | 40.2 | 0.00 | 0.28 | 0.28 | 81 | 1011.7 |
| 20260904134600 | 20 | 288 | 8.0 | 32.2 | 0.00 | 0.28 | 0.28 | 82 | 1011.7 |
| 20260904133100 | 20 | 289 | 12.9 | 25.7 | 0.00 | 0.28 | 0.28 | 84 | 1011.2 |
| 20260904132559 | 20 | 273 | 14.5 | 29.0 | 0.00 | 0.28 | 0.28 | 85 | 1011.3 |
| 20260904132059 | 19 | 275 | 14.5 | 24.1 | 0.00 | 0.28 | 0.28 | 86 | 1011.2 |
| 20260904131559 | 19 | 269 | 11.3 | 24.1 | 0.00 | 0.28 | 0.28 | 86 | 1011.1 |
| 20260904131101 | 19 | 257 | 8.0 | 27.4 | 0.00 | 0.28 | 0.28 | 86 | 1011.1 |
| 20260904124559 | 19 | 261 | 9.7 | 24.1 | 0.00 | 0.28 | 0.28 | 85 | 1011.1 |
| 20260904124100 | 19 | 263 | 11.3 | 29.0 | 0.00 | 0.28 | 0.28 | 85 | 1010.7 |
| 20260904123600 | 19 | 280 | 11.3 | 27.4 | 0.03 | 0.28 | 0.28 | 85 | 1010.8 |
| 20260904123100 | 19 | 315 | 8.0 | 19.3 | 0.03 | 0.28 | 0.28 | 86 | 1010.7 |
| 20260904122559 | 19 | 257 | 11.3 | 24.1 | 0.05 | 0.28 | 0.28 | 87 | 1010.8 |
| 20260904121059 | 18 | 289 | 17.7 | 33.8 | 0.08 | 0.28 | 0.28 | 91 | 1010.8 |
| 20260904120059 | 18 | 266 | 11.3 | 22.5 | 0.10 | 0.28 | 0.28 | 93 | 1010.6 |
| 20260904115559 | 18 | 272 | 11.3 | 29.0 | 0.13 | 0.28 | 0.28 | 93 | 1010.6 |
| 20260904115059 | 18 | 271 | 14.5 | 27.4 | 0.13 | 0.28 | 0.28 | 93 | 1010.6 |
| 20260904113559 | 18 | 285 | 16.1 | 27.4 | 0.13 | 0.25 | 0.25 | 93 | 1010.3 |
| 20260904113100 | 18 | 269 | 11.3 | 19.3 | 0.15 | 0.25 | 0.25 | 93 | 1010.5 |
| 20260904112559 | 18 | 284 | 6.4 | 19.3 | 0.18 | 0.23 | 0.23 | 93 | 1010.2 |
| 20260904110059 | 18 | 278 | 9.7 | 20.9 | 0.18 | 0.18 | 0.18 | 92 | 1010.2 |
| 20260904105559 | 18 | 296 | 8.0 | 22.5 | 0.15 | 0.15 | 0.15 | 92 | 1010.2 |
| 20260904105100 | 18 | 275 | 8.0 | 19.3 | 0.15 | 0.15 | 0.15 | 92 | 1010.1 |
| 20260904104559 | 18 | 283 | 9.7 | 19.3 | 0.15 | 0.15 | 0.15 | 92 | 1010.2 |
| 20260904103100 | 18 | 306 | 11.3 | 19.3 | 0.10 | 0.10 | 0.10 | 87 | 1010.2 |
| 20260904102559 | 20 | 309 | 11.3 | 27.4 | 0.05 | 0.05 | 0.05 | 84 | 1010.1 |
| 20260904102100 | 21 | 307 | 17.7 | 32.2 | 0.00 | 0.00 | 0.00 | 86 | 1009.9 |
| 20260904093559 | 22 | 238 | 24.1 | 40.2 | 0.00 | 0.00 | 0.00 | 83 | 1009.6 |
| 20260904093100 | 22 | 251 | 20.9 | 38.6 | 0.00 | 0.00 | 0.00 | 83 | 1009.6 |
| 20260904090058 | 22 | 241 | 22.5 | 45.1 | 0.00 | 0.00 | 0.00 | 83 | 1009.6 |
| 20260904082558 | 22 | 237 | 17.7 | 41.8 | 0.00 | 0.00 | 0.00 | 83 | 1009.3 |
| 20260904082059 | 22 | 239 | 25.7 | 46.7 | 0.00 | 0.00 | 0.00 | 83 | 1009.3 |
| 20260904080059 | 21 | 230 | 25.7 | 46.7 | 0.00 | 0.00 | 0.00 | 84 | 1009.5 |
| 20260904075558 | 21 | 245 | 22.5 | 40.2 | 0.00 | 0.00 | 0.00 | 85 | 1009.3 |
| 20260904074559 | 21 | 228 | 19.3 | 46.7 | 0.00 | 0.00 | 0.00 | 85 | 1009.4 |
| 20260904074100 | 21 | 244 | 17.7 | 37.0 | 0.00 | 0.00 | 0.00 | 86 | 1009.5 |
| 20260904073558 | 21 | 244 | 19.3 | 46.7 | 0.00 | 0.00 | 0.00 | 85 | 1009.5 |
| 20260904073059 | 21 | 236 | 22.5 | 45.1 | 0.00 | 0.00 | 0.00 | 86 | 1009.8 |
| 20260904072559 | 21 | 249 | 22.5 | 40.2 | 0.00 | 0.00 | 0.00 | 86 | 1009.9 |
| 20260904072059 | 21 | 261 | 20.9 | 38.6 | 0.00 | 0.00 | 0.00 | 85 | 1009.9 |
| 20260904071558 | 21 | 236 | 19.3 | 46.7 | 0.00 | 0.00 | 0.00 | 85 | 1009.9 |
| 20260904071059 | 21 | 253 | 20.9 | 37.0 | 0.00 | 0.00 | 0.00 | 85 | 1009.9 |
| 20260904065559 | 21 | 250 | 20.9 | 49.9 | 0.00 | 0.00 | 0.00 | 84 | 1009.9 |
| 20260904062059 | 21 | 243 | 17.7 | 41.8 | 0.00 | 0.05 | 0.00 | 84 | 1009.8 |
| 20260904053558 | 21 | 258 | 20.9 | 45.1 | 0.00 | 0.10 | 0.00 | 85 | 1010.5 |
| 20260904052059 | 21 | 240 | 14.5 | 41.8 | 0.00 | 0.13 | 0.00 | 85 | 1010.5 |
| 20260904051559 | 21 | 240 | 19.3 | 48.3 | 0.00 | 0.13 | 0.00 | 85 | 1010.5 |
| 20260904045059 | 21 | 251 | 19.3 | 41.8 | 0.00 | 0.13 | 0.00 | 85 | 1010.8 |
| 20260904044558 | 21 | 256 | 16.1 | 32.2 | 0.00 | 0.13 | 0.00 | 86 | 1011.0 |
| 20260904044059 | 21 | 249 | 14.5 | 33.8 | 0.00 | 0.13 | 0.00 | 86 | 1011.1 |
| 20260904043558 | 21 | 227 | 14.5 | 41.8 | 0.00 | 0.13 | 0.00 | 86 | 1011.1 |
| 20260904043059 | 21 | 244 | 16.1 | 53.1 | 0.00 | 0.13 | 0.00 | 86 | 1011.2 |
| 20260904042559 | 21 | 248 | 19.3 | 41.8 | 0.00 | 0.13 | 0.00 | 86 | 1011.3 |
| 20260904040058 | 21 | 236 | 16.1 | 27.4 | 0.00 | 0.13 | 0.00 | 86 | 1011.7 |
| 20260904035558 | 21 | 223 | 12.9 | 33.8 | 0.00 | 0.13 | 0.00 | 86 | 1011.7 |
| 20260904035100 | 21 | 251 | 14.5 | 27.4 | 0.00 | 0.13 | 0.00 | 87 | 1011.7 |
| 20260904034558 | 21 | 255 | 11.3 | 32.2 | 0.00 | 0.13 | 0.00 | 87 | 1011.7 |
| 20260904034059 | 21 | 231 | 14.5 | 37.0 | 0.00 | 0.13 | 0.00 | 87 | 1011.8 |
| 20260904033559 | 21 | 237 | 8.0 | 32.2 | 0.00 | 0.13 | 0.00 | 87 | 1011.9 |
| 20260904033059 | 21 | 251 | 12.9 | 25.7 | 0.00 | 0.13 | 0.00 | 87 | 1012.0 |
| 20260904030058 | 21 | 240 | 14.5 | 25.7 | 0.00 | 0.13 | 0.00 | 87 | 1012.0 |
| 20260904024558 | 21 | 225 | 11.3 | 24.1 | 0.00 | 0.13 | 0.00 | 87 | 1012.2 |
| 20260904024059 | 21 | 256 | 9.7 | 20.9 | 0.00 | 0.13 | 0.00 | 87 | 1012.2 |
| 20260904023559 | 21 | 228 | 16.1 | 25.7 | 0.00 | 0.13 | 0.00 | 87 | 1012.2 |
| 20260904023058 | 21 | 230 | 11.3 | 29.0 | 0.00 | 0.13 | 0.00 | 87 | 1012.2 |
| 20260904022558 | 21 | 243 | 14.5 | 37.0 | 0.00 | 0.13 | 0.00 | 86 | 1012.6 |
| 20260904022059 | 21 | 254 | 16.1 | 32.2 | 0.00 | 0.13 | 0.00 | 87 | 1012.5 |
| 20260904021558 | 21 | 243 | 12.9 | 32.2 | 0.00 | 0.13 | 0.00 | 86 | 1012.5 |
| 20260904020059 | 21 | 263 | 9.7 | 24.1 | 0.00 | 0.13 | 0.00 | 87 | 1012.8 |
| 20260904014558 | 21 | 229 | 8.0 | 20.9 | 0.00 | 0.13 | 0.00 | 87 | 1013.0 |
| 20260904014059 | 21 | 240 | 11.3 | 25.7 | 0.00 | 0.13 | 0.00 | 87 | 1013.0 |
| 20260904013558 | 21 | 230 | 11.3 | 25.7 | 0.00 | 0.13 | 0.00 | 87 | 1013.2 |
| 20260904013058 | 21 | 231 | 12.9 | 24.1 | 0.00 | 0.13 | 0.00 | 87 | 1013.2 |
| 20260903232058 | 21 | 239 | 8.0 | 14.5 | 0.00 | 0.13 | 0.00 | 87 | 1014.3 |
| 20260903231558 | 21 | 248 | 6.4 | 16.1 | 0.00 | 0.13 | 0.00 | 87 | 1014.3 |
| 20260903230057 | 21 | 228 | 11.3 | 24.1 | 0.00 | 0.13 | 0.00 | 87 | 1014.8 |
| 20260903225558 | 21 | 233 | 8.0 | 20.9 | 0.00 | 0.13 | 0.00 | 87 | 1014.8 |
| 20260903225058 | 21 | 233 | 8.0 | 19.3 | 0.00 | 0.13 | 0.00 | 87 | 1014.8 |
| 20260903224557 | 21 | 250 | 9.7 | 24.1 | 0.00 | 0.13 | 0.00 | 87 | 1014.8 |
| 20260903224059 | 21 | 238 | 11.3 | 25.7 | 0.00 | 0.13 | 0.00 | 87 | 1014.8 |
| 20260903223558 | 21 | 241 | 8.0 | 20.9 | 0.00 | 0.13 | 0.00 | 87 | 1014.8 |
| 20260903223059 | 21 | 236 | 8.0 | 22.5 | 0.00 | 0.13 | 0.00 | 87 | 1014.8 |
| 20260903220058 | 21 | 247 | 9.7 | 24.1 | 0.00 | 0.13 | 0.00 | 87 | 1015.3 |
| 20260903215557 | 21 | 240 | 11.3 | 35.4 | 0.00 | 0.13 | 0.13 | 87 | 1015.3 |
| 20260903214557 | 21 | 236 | 11.3 | 24.1 | 0.00 | 0.13 | 0.13 | 87 | 1015.3 |
| 20260903214058 | 21 | 232 | 12.9 | 22.5 | 0.00 | 0.13 | 0.13 | 87 | 1015.3 |
| 20260903212058 | 21 | 244 | 8.0 | 24.1 | 0.00 | 0.13 | 0.13 | 87 | 1015.4 |
| 20260903211557 | 21 | 252 | 9.7 | 22.5 | 0.00 | 0.13 | 0.13 | 87 | 1015.4 |
| 20260903211058 | 21 | 238 | 9.7 | 32.2 | 0.00 | 0.13 | 0.13 | 87 | 1015.6 |
| 20260903204058 | 21 | 246 | 8.0 | 24.1 | 0.00 | 0.13 | 0.13 | 88 | 1016.0 |
| 20260903203557 | 21 | 233 | 8.0 | 19.3 | 0.00 | 0.13 | 0.13 | 88 | 1016.0 |
| 20260903203058 | 21 | 251 | 11.3 | 24.1 | 0.00 | 0.13 | 0.13 | 88 | 1016.1 |
| 20260903202557 | 21 | 241 | 11.3 | 19.3 | 0.00 | 0.13 | 0.13 | 88 | 1015.9 |
| 20260903201558 | 21 | 223 | 11.3 | 22.5 | 0.00 | 0.13 | 0.13 | 88 | 1016.2 |
| 20260903201058 | 21 | 233 | 9.7 | 20.9 | 0.00 | 0.13 | 0.13 | 87 | 1016.0 |
| 20260903193058 | 21 | 260 | 11.3 | 22.5 | 0.00 | 0.13 | 0.13 | 87 | 1016.2 |
| 20260903192557 | 21 | 228 | 9.7 | 20.9 | 0.00 | 0.13 | 0.13 | 87 | 1016.1 |
| 20260903192058 | 21 | 227 | 9.7 | 20.9 | 0.00 | 0.13 | 0.13 | 88 | 1016.0 |
| 20260903183058 | 21 | 258 | 8.0 | 20.9 | 0.00 | 0.13 | 0.13 | 87 | 1016.2 |
| 20260903182557 | 21 | 236 | 11.3 | 20.9 | 0.00 | 0.13 | 0.13 | 87 | 1016.3 |
| 20260903181058 | 21 | 240 | 8.0 | 27.4 | 0.00 | 0.13 | 0.13 | 86 | 1016.2 |
| 20260903174557 | 21 | 245 | 11.3 | 19.3 | 0.00 | 0.13 | 0.13 | 84 | 1016.3 |
| 20260903173557 | 21 | 244 | 8.0 | 19.3 | 0.00 | 0.13 | 0.13 | 83 | 1016.3 |
| 20260903173059 | 22 | 225 | 9.7 | 19.3 | 0.00 | 0.13 | 0.13 | 83 | 1016.5 |
| 20260903172557 | 22 | 246 | 6.4 | 16.1 | 0.00 | 0.13 | 0.13 | 82 | 1016.6 |
| 20260903172058 | 22 | 261 | 8.0 | 19.3 | 0.00 | 0.13 | 0.13 | 81 | 1016.5 |
| 20260903171557 | 22 | 339 | 4.8 | 12.9 | 0.00 | 0.13 | 0.13 | 81 | 1016.4 |
| 20260903171058 | 22 | 237 | 4.8 | 19.3 | 0.00 | 0.13 | 0.13 | 81 | 1016.4 |
| 20260903162557 | 22 | 248 | 11.3 | 32.2 | 0.00 | 0.13 | 0.13 | 80 | 1016.3 |
| 20260903162058 | 22 | 243 | 9.7 | 24.1 | 0.00 | 0.13 | 0.13 | 79 | 1016.6 |
| 20260903155557 | 22 | 242 | 11.3 | 19.3 | 0.00 | 0.13 | 0.13 | 79 | 1016.4 |
| 20260903155058 | 22 | 257 | 12.9 | 22.5 | 0.00 | 0.13 | 0.13 | 79 | 1016.4 |
| 20260903154557 | 22 | 240 | 12.9 | 20.9 | 0.00 | 0.13 | 0.13 | 79 | 1016.4 |
| 20260903154058 | 22 | 249 | 9.7 | 22.5 | 0.00 | 0.13 | 0.13 | 79 | 1016.4 |
| 20260903153557 | 22 | 247 | 9.7 | 27.4 | 0.00 | 0.13 | 0.13 | 78 | 1016.5 |
| 20260903152557 | 22 | 262 | 11.3 | 22.5 | 0.00 | 0.13 | 0.13 | 76 | 1016.6 |
| 20260903152058 | 22 | 299 | 11.3 | 27.4 | 0.00 | 0.13 | 0.13 | 75 | 1016.7 |
| 20260903151557 | 22 | 249 | 14.5 | 22.5 | 0.00 | 0.13 | 0.13 | 76 | 1016.8 |
| 20260903151057 | 22 | 254 | 11.3 | 32.2 | 0.00 | 0.13 | 0.13 | 76 | 1016.8 |
| 20260903145058 | 22 | 256 | 8.0 | 24.1 | 0.00 | 0.13 | 0.13 | 74 | 1016.6 |
| 20260903144557 | 22 | 271 | 9.7 | 24.1 | 0.00 | 0.13 | 0.13 | 75 | 1016.8 |
| 20260903144057 | 23 | 284 | 11.3 | 24.1 | 0.00 | 0.13 | 0.13 | 74 | 1016.7 |
| 20260903143558 | 23 | 267 | 11.3 | 32.2 | 0.00 | 0.13 | 0.13 | 74 | 1016.7 |
| 20260903142057 | 22 | 235 | 14.5 | 25.7 | 0.00 | 0.13 | 0.13 | 74 | 1016.5 |